DW8024 Cheadle Hulme UK current weather conditions

sailwx.info

Wind from 173 at 7 knots gusting 14

Air temperature 15.0° C
Dewpoint 11.0° C

Last reported at 2019-Jun-16 10:09 UTC.
Time now 2019-Jun-16 10:34 UTC

Location: N 53°22' W 002°12'.
View on Google Maps.

See reports from other nearby stations

  
Tides and Currents Weather Stations Pressure Air Temp Water Temp Dewpoint Dewpoint Depression Visibility Wind Speed Wind Dir Waves Ship Positions
date/time (UTC)wind fromknots sea level pressurealtimeterstation pressurevisibilityair tempwater tempwave heightnotes
2019-Jun-16 10:09 173 7 gusting 14 15.0
2019-Jun-16 10:04 167 7 gusting 14 15.0
2019-Jun-16 09:59 162 7 gusting 13 15.0
2019-Jun-16 09:54 162 7 gusting 13 15.0
2019-Jun-16 09:49 164 9 gusting 16 15.0
2019-Jun-16 09:44 162 10 gusting 17 15.0
2019-Jun-16 09:39 165 9 gusting 17 15.0
2019-Jun-16 09:34 169 7 gusting 15 15.6
2019-Jun-16 09:29 162 6 gusting 12 15.0
2019-Jun-16 09:24 155 6 gusting 12 14.4
2019-Jun-16 09:19 157 7 gusting 12 14.4
2019-Jun-16 09:14 162 7 gusting 12 14.4
2019-Jun-16 09:09 166 6 gusting 12 14.4
2019-Jun-16 09:04 163 7 gusting 13 14.4
2019-Jun-16 08:59 159 7 gusting 13 14.4
2019-Jun-16 08:54 154 7 gusting 13 14.4
2019-Jun-16 08:49 155 6 gusting 13 13.9
2019-Jun-16 08:44 163 6 gusting 11 13.9
2019-Jun-16 08:39 164 5 gusting 10 13.9
2019-Jun-16 08:34 165 6 gusting 13 13.3
2019-Jun-16 08:29 163 6 gusting 13 13.3
2019-Jun-16 08:24 164 6 gusting 13 13.9
2019-Jun-16 08:19 162 6 gusting 13 13.9
2019-Jun-16 08:14 158 6 gusting 12 13.9
2019-Jun-16 08:09 162 6 gusting 13 13.3
2019-Jun-16 08:04 161 6 gusting 13 13.3
2019-Jun-16 07:59 159 6 gusting 11 13.3
2019-Jun-16 07:54 163 7 gusting 13 13.3
2019-Jun-16 07:49 166 7 gusting 13 13.3
2019-Jun-16 07:44 171 6 gusting 13 13.3
2019-Jun-16 07:39 171 6 gusting 13 13.3
2019-Jun-16 07:34 166 6 gusting 12 13.3
2019-Jun-16 07:29 165 6 gusting 12 13.3
2019-Jun-16 07:24 166 6 gusting 9 13.3
2019-Jun-16 07:19 165 6 gusting 11 12.8
2019-Jun-16 07:14 161 6 gusting 13 12.8
2019-Jun-16 07:09 155 5 gusting 13 12.2
2019-Jun-16 07:04 151 5 gusting 10 12.2
2019-Jun-16 06:59 154 5 gusting 10 11.7
2019-Jun-16 06:54 161 5 gusting 9 11.7
2019-Jun-16 06:49 166 4 gusting 7 11.7
2019-Jun-16 06:44 167 4 gusting 8 11.7
2019-Jun-16 06:39 165 3 gusting 8 11.7
2019-Jun-16 06:34 151 2 gusting 6 11.7
2019-Jun-16 06:29 146 3 gusting 7 11.7
2019-Jun-16 06:24 154 4 gusting 7 11.1
2019-Jun-16 06:19 155 4 gusting 7 11.1
2019-Jun-16 06:14 157 5 gusting 8 11.1
2019-Jun-16 06:09 159 5 gusting 11 11.1
2019-Jun-16 06:04 158 6 gusting 13 11.1
2019-Jun-16 05:59 160 6 gusting 13 11.1
2019-Jun-16 05:54 162 5 gusting 8 11.1
2019-Jun-16 05:49 166 5 gusting 10 10.6
2019-Jun-16 05:44 167 6 gusting 10 10.6
2019-Jun-16 05:39 166 6 gusting 10 10.6
2019-Jun-16 05:34 164 5 gusting 10 10.6
2019-Jun-16 05:29 163 4 gusting 7 10.6
2019-Jun-16 05:24 165 5 gusting 8 10.0
2019-Jun-16 05:19 162 5 gusting 8 10.0
2019-Jun-16 05:14 158 4 gusting 8 10.0
2019-Jun-16 05:09 158 4 gusting 8 9.4
2019-Jun-16 05:04 161 4 gusting 8 9.4
2019-Jun-16 04:59 160 3 gusting 8 9.4
2019-Jun-16 04:54 156 2 gusting 7 9.4
2019-Jun-16 04:49 153 3 gusting 6 9.4
2019-Jun-16 04:44 153 3 gusting 7 9.4
2019-Jun-16 04:39 154 3 gusting 7 9.4
2019-Jun-16 04:34 154 2 gusting 4 9.4
2019-Jun-16 04:29 157 2 gusting 5 9.4
2019-Jun-16 04:24 156 3 gusting 6 9.4
2019-Jun-16 04:19 154 3 gusting 6 9.4
2019-Jun-16 04:14 150 3 gusting 6 9.4
2019-Jun-16 04:09 149 3 gusting 6 8.9
2019-Jun-16 04:04 152 3 gusting 6 8.9
2019-Jun-16 03:59 152 3 gusting 6 8.9
2019-Jun-16 03:54 152 3 gusting 6 8.9
2019-Jun-16 03:49 153 3 gusting 6 9.4
2019-Jun-16 03:44 155 3 gusting 6 9.4
2019-Jun-16 03:39 153 3 gusting 6 9.4
2019-Jun-16 03:34 150 3 gusting 5 9.4
2019-Jun-16 03:29 155 2 gusting 6 9.4
2019-Jun-16 03:24 158 2 gusting 6 9.4
2019-Jun-16 03:19 159 2 gusting 6 9.4
2019-Jun-16 03:14 160 3 gusting 6 9.4
2019-Jun-16 03:09 163 3 gusting 6 9.4
2019-Jun-16 03:04 165 3 gusting 6 9.4
2019-Jun-16 02:59 166 3 gusting 6 9.4
2019-Jun-16 02:54 161 3 gusting 6 9.4
2019-Jun-16 02:49 154 3 gusting 6 9.4
2019-Jun-16 02:44 154 3 gusting 5 9.4
2019-Jun-16 02:39 154 2 gusting 5 9.4
2019-Jun-16 02:34 147 2 gusting 6 9.4
2019-Jun-16 02:29 148 3 gusting 6 9.4
2019-Jun-16 02:24 150 3 gusting 5 9.4
2019-Jun-16 02:19 150 2 gusting 4 9.4
2019-Jun-16 02:14 147 3 gusting 4 8.9
2019-Jun-16 02:09 146 2 gusting 5 8.9
2019-Jun-16 02:04 145 2 gusting 5 8.9
2019-Jun-16 01:59 141 2 gusting 4 8.9
2019-Jun-16 01:54 139 2 gusting 3 8.9
2019-Jun-16 01:49 139 2 gusting 3 8.9
2019-Jun-16 01:44 138 2 gusting 3 8.9
2019-Jun-16 01:39 137 2 gusting 3 8.9
2019-Jun-16 01:34 138 2 gusting 3 8.9
2019-Jun-16 01:29 138 2 gusting 4 8.9
2019-Jun-16 01:24 139 2 gusting 4 8.9
2019-Jun-16 01:19 144 2 gusting 4 8.9
2019-Jun-16 01:14 151 1 gusting 4 8.9
2019-Jun-16 01:09 156 1 gusting 4 8.9
2019-Jun-16 01:04 158 1 gusting 4 8.9
2019-Jun-16 00:59 163 1 gusting 3 8.9
2019-Jun-16 00:54 167 1 gusting 3 8.9
2019-Jun-16 00:49 169 1 gusting 3 8.9
2019-Jun-16 00:44 164 1 gusting 4 8.9
2019-Jun-16 00:39 154 1 gusting 4 8.9
2019-Jun-16 00:34 153 1 gusting 2 8.9
2019-Jun-16 00:29 153 1 gusting 2 8.9
2019-Jun-16 00:24 153 1 gusting 3 9.4
2019-Jun-16 00:19 153 1 gusting 3 9.4
2019-Jun-16 00:14 153 0 gusting 3 9.4
2019-Jun-16 00:09 153 0 gusting 2 9.4
2019-Jun-16 00:04 153 0 gusting 2 9.4
2019-Jun-15 23:59 153 0 gusting 2 9.4
2019-Jun-15 23:54 153 1 gusting 2 9.4
2019-Jun-15 23:49 153 1 gusting 3 9.4
2019-Jun-15 23:44 153 0 gusting 3 9.4
2019-Jun-15 23:39 9.4
2019-Jun-15 23:34 9.4
2019-Jun-15 23:29 10.0
2019-Jun-15 23:24 153 0 gusting 2 10.0
2019-Jun-15 23:19 153 1 gusting 3 10.0
2019-Jun-15 23:14 152 0 gusting 3 10.0
2019-Jun-15 23:09 153 0 gusting 2 10.0
2019-Jun-15 23:04 153 1 gusting 3 10.6
2019-Jun-15 22:59 159 2 gusting 3 10.6
2019-Jun-15 22:54 167 1 gusting 3 10.6
2019-Jun-15 22:49 170 0 gusting 2 10.6
2019-Jun-15 22:44 10.6
2019-Jun-15 22:39 11.1
2019-Jun-15 22:34 170 0 gusting 1 11.1
2019-Jun-15 22:29 171 1 gusting 3 11.1
2019-Jun-15 22:24 171 1 gusting 3 11.1
2019-Jun-15 22:19 171 1 gusting 3 11.7
2019-Jun-15 22:14 11.7
2019-Jun-15 22:09 11.7
2019-Jun-15 22:04 11.7
2019-Jun-15 21:59 11.7
2019-Jun-15 21:54 11.7
2019-Jun-15 21:49 11.7
2019-Jun-15 21:44 11.7
2019-Jun-15 21:39 11.7
2019-Jun-15 21:34 320 0 gusting 2 11.7
2019-Jun-15 21:29 11.7
2019-Jun-15 21:24 11.7
2019-Jun-15 21:19 11.7
2019-Jun-15 21:14 11.7
2019-Jun-15 21:09 11.7
2019-Jun-15 21:04 11.7
2019-Jun-15 20:59 11.7
2019-Jun-15 20:54 11.7
2019-Jun-15 20:49 11.7
2019-Jun-15 20:44 11.7
2019-Jun-15 20:39 12.2
2019-Jun-15 20:34 12.2
2019-Jun-15 20:29 12.2
2019-Jun-15 20:24 040 0 gusting 2 12.2
2019-Jun-15 20:19 037 0 gusting 2 12.2
2019-Jun-15 20:14 029 0 gusting 2 12.8
2019-Jun-15 20:09 12.8
2019-Jun-15 20:04 12.8
2019-Jun-15 19:59 13.3
2019-Jun-15 19:54 13.3
2019-Jun-15 19:49 13.3
2019-Jun-15 19:44 13.3
2019-Jun-15 19:39 13.3
2019-Jun-15 19:34 355 0 gusting 2 13.3
2019-Jun-15 19:29 355 0 gusting 2 13.9
2019-Jun-15 19:24 13.9
2019-Jun-15 19:19 13.9
2019-Jun-15 19:14 13.9
2019-Jun-15 19:09 13.9
2019-Jun-15 19:04 338 0 gusting 3 13.9
2019-Jun-15 18:59 335 0 gusting 3 14.4
2019-Jun-15 18:54 327 1 gusting 3 14.4
2019-Jun-15 18:49 312 1 gusting 3 14.4
2019-Jun-15 18:44 301 1 gusting 2 14.4
2019-Jun-15 18:39 300 0 gusting 2 13.9
2019-Jun-15 18:34 305 1 gusting 3 13.9
2019-Jun-15 18:29 310 1 gusting 3 13.9
2019-Jun-15 18:24 312 2 gusting 6 13.9
2019-Jun-15 18:19 315 3 gusting 7 13.9
2019-Jun-15 18:14 312 3 gusting 7 13.9
2019-Jun-15 18:09 305 3 gusting 6 13.9
2019-Jun-15 18:04 307 3 gusting 7 14.4
2019-Jun-15 17:59 317 3 gusting 7 14.4
2019-Jun-15 17:54 324 3 gusting 6 14.4
2019-Jun-15 17:49 323 3 gusting 6 14.4
2019-Jun-15 17:44 322 3 gusting 6 14.4
2019-Jun-15 17:39 330 3 gusting 6 14.4
2019-Jun-15 17:34 339 3 gusting 6 14.4
2019-Jun-15 17:29 326 3 gusting 7 14.4
2019-Jun-15 17:24 318 4 gusting 7 14.4
2019-Jun-15 17:19 315 3 gusting 6 14.4
2019-Jun-15 17:14 314 2 gusting 5 14.4
2019-Jun-15 17:09 322 1 gusting 5 14.4
2019-Jun-15 17:04 328 1 gusting 5 15.0
2019-Jun-15 16:59 321 1 gusting 5 15.0
2019-Jun-15 16:54 304 1 gusting 3 15.6
2019-Jun-15 16:49 299 2 gusting 6 16.1
2019-Jun-15 16:44 193 4 gusting 9 16.7
2019-Jun-15 16:39 172 5 gusting 9 16.7
2019-Jun-15 16:34 168 4 gusting 7 17.2
2019-Jun-15 16:29 167 4 gusting 7 17.2
2019-Jun-15 16:24 162 4 gusting 7 17.2
2019-Jun-15 16:19 160 3 gusting 6 17.2
2019-Jun-15 16:14 166 2 gusting 6 16.7
2019-Jun-15 16:09 164 2 gusting 6 17.2
2019-Jun-15 16:04 166 4 gusting 7 16.7
2019-Jun-15 15:59 163 3 gusting 7 16.7
2019-Jun-15 15:54 162 3 gusting 7 16.7
2019-Jun-15 15:49 155 4 gusting 7 16.7
2019-Jun-15 15:44 141 3 gusting 6 16.7
2019-Jun-15 15:39 143 3 gusting 7 16.7
2019-Jun-15 15:34 154 4 gusting 7 16.1
2019-Jun-15 15:29 153 3 gusting 7 16.1
2019-Jun-15 15:24 154 3 gusting 6 15.6
2019-Jun-15 15:19 157 3 gusting 6 15.0
2019-Jun-15 15:14 158 4 gusting 6 15.0
2019-Jun-15 15:09 160 4 gusting 7 15.0
2019-Jun-15 15:04 149 5 gusting 9 14.4
2019-Jun-15 14:59 143 5 gusting 9 14.4
2019-Jun-15 14:54 146 4 gusting 8 14.4
2019-Jun-15 14:49 146 3 gusting 6 14.4
2019-Jun-15 14:44 150 3 gusting 6 14.4
2019-Jun-15 14:39 156 4 gusting 7 14.4
2019-Jun-15 14:34 158 4 gusting 8 14.4
2019-Jun-15 14:29 161 4 gusting 8 14.4
2019-Jun-15 14:24 157 3 gusting 7 14.4
2019-Jun-15 14:19 151 4 gusting 10 14.4
2019-Jun-15 14:14 151 3 gusting 10 14.4
2019-Jun-15 14:09 146 2 gusting 4 14.4
2019-Jun-15 14:04 142 2 gusting 6 13.9
2019-Jun-15 13:59 151 3 gusting 6 13.9
2019-Jun-15 13:54 160 3 gusting 6 13.3
2019-Jun-15 13:49 168 4 gusting 7 13.3
2019-Jun-15 13:44 176 4 gusting 8 13.3
2019-Jun-15 13:39 182 4 gusting 8 13.3
2019-Jun-15 13:34 184 5 gusting 11 13.9
2019-Jun-15 13:29 191 5 gusting 11 13.9
2019-Jun-15 13:24 198 6 gusting 14 13.9
2019-Jun-15 13:19 215 6 gusting 14 14.4
2019-Jun-15 13:14 208 6 gusting 11 15.6
2019-Jun-15 13:09 178 7 gusting 14 15.6
2019-Jun-15 13:04 173 8 gusting 14 15.6
2019-Jun-15 12:59 168 8 gusting 17 16.1
2019-Jun-15 12:54 168 8 gusting 17 16.1
2019-Jun-15 12:49 167 8 gusting 16 16.1
2019-Jun-15 12:44 159 7 gusting 14 16.7
2019-Jun-15 12:39 156 6 gusting 13 16.7
2019-Jun-15 12:34 155 7 gusting 13 16.7
2019-Jun-15 12:29 157 9 gusting 15 16.7
2019-Jun-15 12:24 160 8 gusting 15 16.7
2019-Jun-15 12:19 152 7 gusting 13 16.7
2019-Jun-15 12:14 152 7 gusting 13 16.7
2019-Jun-15 12:09 150 8 gusting 14 16.7
2019-Jun-15 12:04 157 9 gusting 15 16.7
2019-Jun-15 11:59 163 9 gusting 15 16.7
2019-Jun-15 11:54 154 9 gusting 15 16.7
2019-Jun-15 11:49 152 9 gusting 15 16.7
2019-Jun-15 11:44 149 8 gusting 14 16.7
2019-Jun-15 11:39 153 9 gusting 17 16.1
2019-Jun-15 11:34 160 10 gusting 17 16.1
2019-Jun-15 11:29 162 9 gusting 18 16.1
2019-Jun-15 11:24 160 8 gusting 18 16.7
2019-Jun-15 11:19 161 8 gusting 17 16.7
2019-Jun-15 11:14 165 8 gusting 17 16.7
2019-Jun-15 11:09 160 8 gusting 15 16.7
2019-Jun-15 11:04 152 7 gusting 15 16.7
2019-Jun-15 10:59 153 8 gusting 15 16.7
2019-Jun-15 10:54 154 9 gusting 18 16.7
2019-Jun-15 10:49 150 9 gusting 18 16.7
2019-Jun-15 10:44 146 10 gusting 18 16.7
2019-Jun-15 10:39 147 11 gusting 18 16.7
2019-Jun-15 10:34 153 11 gusting 18 16.7
2019-Jun-15 10:29 154 9 gusting 16 16.7
2019-Jun-15 10:24 149 8 gusting 16 16.1
2019-Jun-15 10:19 154 8 gusting 16 15.6
2019-Jun-15 10:14 160 8 gusting 14 15.6
2019-Jun-15 10:09 157 9 gusting 14 15.0
2019-Jun-15 10:04 154 10 gusting 15 15.6
2019-Jun-15 09:59 153 9 gusting 15 15.6
2019-Jun-15 09:54 158 8 gusting 14 15.6
2019-Jun-15 09:49 159 8 gusting 18 15.6
2019-Jun-15 09:44 155 9 gusting 18 15.6
2019-Jun-15 09:39 154 9 gusting 16 15.6
2019-Jun-15 09:34 153 7 gusting 13 15.0
2019-Jun-15 09:29 158 8 gusting 15 15.0
2019-Jun-15 09:24 161 9 gusting 16 15.0
2019-Jun-15 09:19 162 9 gusting 16 15.0
2019-Jun-15 09:14 162 7 gusting 13 14.4
2019-Jun-15 09:09 163 7 gusting 13 14.4
2019-Jun-15 09:04 161 7 gusting 13 14.4
2019-Jun-15 08:59 159 8 gusting 15 14.4
2019-Jun-15 08:54 162 9 gusting 15 14.4
2019-Jun-15 08:49 156 7 gusting 15 14.4
2019-Jun-15 08:44 152 7 gusting 16 14.4
2019-Jun-15 08:39 155 8 gusting 16 14.4
2019-Jun-15 08:34 160 8 gusting 13 14.4
2019-Jun-15 08:29 156 8 gusting 15 14.4
2019-Jun-15 08:24 158 7 gusting 15 14.4
2019-Jun-15 08:19 163 7 gusting 13 14.4
2019-Jun-15 08:14 156 8 gusting 14 14.4
2019-Jun-15 08:09 154 8 gusting 14 14.4
2019-Jun-15 08:04 157 7 gusting 13 14.4
2019-Jun-15 07:59 157 7 gusting 13 14.4
2019-Jun-15 07:54 160 8 gusting 14 13.9
2019-Jun-15 07:49 163 8 gusting 14 13.9
2019-Jun-15 07:44 161 7 gusting 13 13.9
2019-Jun-15 07:39 161 8 gusting 14 13.9
2019-Jun-15 07:34 162 9 gusting 14 13.9
2019-Jun-15 07:29 158 8 gusting 14 13.9
2019-Jun-15 07:24 157 7 gusting 13 13.9
2019-Jun-15 07:19 158 8 gusting 16 13.9
2019-Jun-15 07:14 155 9 gusting 16 13.3
2019-Jun-15 07:09 157 8 gusting 14 13.3
2019-Jun-15 07:04 160 7 gusting 18 13.3
2019-Jun-15 06:59 157 8 gusting 18 13.3
2019-Jun-15 06:54 158 7 gusting 14 13.3
2019-Jun-15 06:49 158 7 gusting 14 13.3
2019-Jun-15 06:44 157 7 gusting 13 13.3
2019-Jun-15 06:39 156 8 gusting 14 13.3
2019-Jun-15 06:34 156 8 gusting 14 13.3
2019-Jun-15 06:29 155 8 gusting 15 13.3
2019-Jun-15 06:24 153 8 gusting 15 12.8
2019-Jun-15 06:19 154 8 gusting 16 12.8
2019-Jun-15 06:14 152 8 gusting 16 12.8
2019-Jun-15 06:09 154 8 gusting 15 12.8
2019-Jun-15 06:04 154 7 gusting 15 12.8
2019-Jun-15 05:59 153 6 gusting 11 12.2
2019-Jun-15 05:54 154 6 gusting 11 11.7
2019-Jun-15 05:49 152 6 gusting 11 11.7
2019-Jun-15 05:44 154 6 gusting 11 11.7
2019-Jun-15 05:39 155 6 gusting 11 11.7
2019-Jun-15 05:34 157 6 gusting 10 11.1
2019-Jun-15 05:29 156 5 gusting 10 11.1
2019-Jun-15 05:24 150 5 gusting 11 11.1
2019-Jun-15 05:19 148 6 gusting 11 10.6
2019-Jun-15 05:14 146 5 gusting 11 10.6
2019-Jun-15 05:09 145 5 gusting 9 10.6
2019-Jun-15 05:04 149 5 gusting 9 10.6
2019-Jun-15 04:59 156 4 gusting 8 10.6
2019-Jun-15 04:54 161 5 gusting 8 10.6
2019-Jun-15 04:49 160 5 gusting 10 11.1
2019-Jun-15 04:44 156 5 gusting 12 11.1
2019-Jun-15 04:39 153 4 gusting 12 11.1
2019-Jun-15 04:34 148 4 gusting 8 11.1
2019-Jun-15 04:29 155 5 gusting 12 11.1
2019-Jun-15 04:24 156 6 gusting 12 11.1
2019-Jun-15 04:19 155 5 gusting 10 11.1
2019-Jun-15 04:14 155 5 gusting 10 11.1
2019-Jun-15 04:09 152 4 gusting 10 11.1
2019-Jun-15 04:04 152 4 gusting 9 11.7
2019-Jun-15 03:59 152 5 gusting 11 11.7
2019-Jun-15 03:54 154 5 gusting 11 11.7
2019-Jun-15 03:49 153 4 gusting 9 11.7
2019-Jun-15 03:44 149 5 gusting 9 11.7
2019-Jun-15 03:39 148 6 gusting 9 11.7
2019-Jun-15 03:34 146 5 gusting 9 11.7
2019-Jun-15 03:29 146 4 gusting 9 11.7
2019-Jun-15 03:24 147 4 gusting 8 11.7
2019-Jun-15 03:19 149 3 gusting 7 11.7
2019-Jun-15 03:14 147 4 gusting 10 11.7
2019-Jun-15 03:09 145 4 gusting 10 11.7
2019-Jun-15 03:04 145 4 gusting 7 11.7
2019-Jun-15 02:59 145 5 gusting 8 11.7
2019-Jun-15 02:54 145 4 gusting 8 11.7
2019-Jun-15 02:49 143 4 gusting 8 11.7
2019-Jun-15 02:44 145 4 gusting 8 11.7
2019-Jun-15 02:39 140 4 gusting 6 11.7
2019-Jun-15 02:34 135 4 gusting 6 11.7
2019-Jun-15 02:29 139 4 gusting 9 11.7
2019-Jun-15 02:24 140 4 gusting 9 11.7
2019-Jun-15 02:19 139 3 gusting 8 11.7
2019-Jun-15 02:14 139 4 gusting 8 11.7
2019-Jun-15 02:09 138 4 gusting 7 11.7
2019-Jun-15 02:04 138 4 gusting 7 11.7
2019-Jun-15 01:59 139 3 gusting 6 11.7
2019-Jun-15 01:54 140 3 gusting 6 11.7
2019-Jun-15 01:49 143 3 gusting 6 11.7
2019-Jun-15 01:44 143 3 gusting 6 11.7
2019-Jun-15 01:39 142 3 gusting 6 11.7
2019-Jun-15 01:34 145 3 gusting 6 11.7
2019-Jun-15 01:29 150 3 gusting 6 11.7
2019-Jun-15 01:24 147 3 gusting 6 11.7
2019-Jun-15 01:19 144 3 gusting 6 12.2
2019-Jun-15 01:14 141 3 gusting 6 12.2
2019-Jun-15 01:09 140 3 gusting 6 12.2
2019-Jun-15 01:04 140 4 gusting 7 12.2
2019-Jun-15 00:59 139 3 gusting 7 12.2
2019-Jun-15 00:54 140 3 gusting 5 12.2
2019-Jun-15 00:49 140 3 gusting 5 12.2
2019-Jun-15 00:44 139 2 gusting 4 12.2
2019-Jun-15 00:39 142 2 gusting 4 12.2
2019-Jun-15 00:34 146 2 gusting 5 12.2
2019-Jun-15 00:29 148 3 gusting 6 12.2
2019-Jun-15 00:24 149 3 gusting 6 12.2
2019-Jun-15 00:19 147 2 gusting 6 12.2
2019-Jun-15 00:14 148 2 gusting 7 12.2
2019-Jun-15 00:09 150 2 gusting 7 12.2
2019-Jun-15 00:04 152 2 gusting 5 12.2
2019-Jun-14 23:59 151 2 gusting 5 12.2
2019-Jun-14 23:54 153 2 gusting 5 12.8
2019-Jun-14 23:49 151 2 gusting 4 12.8
2019-Jun-14 23:44 148 3 gusting 4 12.8
2019-Jun-14 23:39 145 3 gusting 5 12.8
2019-Jun-14 23:34 145 3 gusting 6 12.8
2019-Jun-14 23:29 147 2 gusting 6 12.8
2019-Jun-14 23:24 150 2 gusting 6 12.8
2019-Jun-14 23:19 155 3 gusting 7 12.8
2019-Jun-14 23:14 162 3 gusting 7 12.8
2019-Jun-14 23:09 165 2 gusting 5 12.8
2019-Jun-14 23:04 160 2 gusting 5 12.8
2019-Jun-14 22:59 156 2 gusting 5 12.8
2019-Jun-14 22:54 152 2 gusting 5 12.8
2019-Jun-14 22:49 156 2 gusting 6 12.8
2019-Jun-14 22:44 165 2 gusting 6 12.8
2019-Jun-14 22:39 165 2 gusting 6 12.8
2019-Jun-14 22:34 159 2 gusting 6 12.8
2019-Jun-14 22:29 152 2 gusting 4 12.8
2019-Jun-14 22:24 155 1 gusting 4 12.8
2019-Jun-14 22:19 165 2 gusting 6 12.8
2019-Jun-14 22:14 169 2 gusting 6 12.2
2019-Jun-14 22:09 167 2 gusting 5 12.2
2019-Jun-14 22:04 166 3 gusting 6 12.2
2019-Jun-14 21:59 168 3 gusting 6 12.2
2019-Jun-14 21:54 167 2 gusting 6 12.2
2019-Jun-14 21:49 166 2 gusting 5 12.2
2019-Jun-14 21:44 161 2 gusting 5 12.2
2019-Jun-14 21:39 156 2 gusting 4 12.2
2019-Jun-14 21:34 151 2 gusting 6 12.2
2019-Jun-14 21:29 146 3 gusting 6 12.2
2019-Jun-14 21:24 144 3 gusting 6 12.2
2019-Jun-14 21:19 146 3 gusting 6 12.2
2019-Jun-14 21:14 154 3 gusting 6 12.2
2019-Jun-14 21:09 160 2 gusting 4 12.8
2019-Jun-14 21:04 153 2 gusting 5 12.8
2019-Jun-14 20:59 148 3 gusting 6 12.8
2019-Jun-14 20:54 146 3 gusting 6 12.8
2019-Jun-14 20:49 145 3 gusting 6 12.8
2019-Jun-14 20:44 146 3 gusting 6 12.8
2019-Jun-14 20:39 148 2 gusting 5 12.8
2019-Jun-14 20:34 149 2 gusting 4 12.8
2019-Jun-14 20:29 155 2 gusting 4 12.8
2019-Jun-14 20:24 162 2 gusting 4 13.3
2019-Jun-14 20:19 170 2 gusting 4 13.3
2019-Jun-14 20:14 179 2 gusting 5 13.3
2019-Jun-14 20:09 181 2 gusting 5 13.3
2019-Jun-14 20:04 173 3 gusting 5 13.3
2019-Jun-14 19:59 171 3 gusting 6 13.3
2019-Jun-14 19:54 167 3 gusting 6 13.3
2019-Jun-14 19:49 167 3 gusting 7 13.3
2019-Jun-14 19:44 170 3 gusting 7 13.3
2019-Jun-14 19:39 169 3 gusting 9 13.3
2019-Jun-14 19:34 168 5 gusting 10 13.3
2019-Jun-14 19:29 167 6 gusting 10 13.3
2019-Jun-14 19:24 166 5 gusting 9 13.9
2019-Jun-14 19:19 164 6 gusting 9 13.9
2019-Jun-14 19:14 165 6 gusting 9 13.9
2019-Jun-14 19:09 164 6 gusting 9 13.9
2019-Jun-14 19:04 159 5 gusting 8 13.9
2019-Jun-14 18:59 159 4 gusting 8 13.9
2019-Jun-14 18:54 156 3 gusting 7 13.9
2019-Jun-14 18:49 150 3 gusting 6 13.9
2019-Jun-14 18:44 150 4 gusting 7 13.9
2019-Jun-14 18:39 152 4 gusting 7 13.9
2019-Jun-14 18:34 156 4 gusting 7 13.9
2019-Jun-14 18:29 161 4 gusting 8 13.9
2019-Jun-14 18:24 161 4 gusting 8 13.9
2019-Jun-14 18:19 156 3 gusting 6 13.9
2019-Jun-14 18:14 160 4 gusting 7 13.9
2019-Jun-14 18:09 164 4 gusting 8 13.9
2019-Jun-14 18:04 165 5 gusting 8 13.9
2019-Jun-14 17:59 164 5 gusting 8 13.9
2019-Jun-14 17:54 159 5 gusting 9 13.9
2019-Jun-14 17:49 154 5 gusting 11 14.4
2019-Jun-14 17:44 153 4 gusting 11 14.4
2019-Jun-14 17:39 151 5 gusting 10 14.4
2019-Jun-14 17:34 150 4 gusting 9 14.4
2019-Jun-14 17:29 149 2 gusting 6 14.4
2019-Jun-14 17:24 145 2 gusting 5 14.4
2019-Jun-14 17:19 147 3 gusting 6 14.4
2019-Jun-14 17:14 148 3 gusting 6 15.0
2019-Jun-14 17:09 154 5 gusting 13 15.0
2019-Jun-14 17:04 159 6 gusting 13 15.6
2019-Jun-14 16:59 157 6 gusting 9 16.1
2019-Jun-14 16:54 148 6 gusting 9 16.1
2019-Jun-14 16:49 155 6 gusting 10 16.7
2019-Jun-14 16:44 157 5 gusting 10 16.7
2019-Jun-14 16:39 144 4 gusting 8 16.7
2019-Jun-14 16:34 149 5 gusting 8 17.2
2019-Jun-14 16:29 164 4 gusting 8 17.2
2019-Jun-14 16:24 164 3 gusting 8 17.2
2019-Jun-14 16:19 155 3 gusting 6 17.2
2019-Jun-14 16:14 161 4 gusting 6 16.7
2019-Jun-14 16:09 153 4 gusting 8 16.7
2019-Jun-14 16:04 156 4 gusting 8 16.7
2019-Jun-14 15:59 174 3 gusting 6 16.7
2019-Jun-14 15:54 177 3 gusting 6 16.7
2019-Jun-14 15:49 166 3 gusting 6 16.7
2019-Jun-14 15:44 151 4 gusting 7 17.2
2019-Jun-14 15:39 147 4 gusting 7 17.2
2019-Jun-14 15:34 152 3 gusting 7 17.8
2019-Jun-14 15:29 162 4 gusting 9 17.8
2019-Jun-14 15:24 155 3 gusting 9 18.3
2019-Jun-14 15:19 149 3 gusting 6 18.3
2019-Jun-14 15:14 150 3 gusting 6 18.3
2019-Jun-14 15:09 160 3 gusting 6 18.3
2019-Jun-14 15:04 179 4 gusting 9 17.8
2019-Jun-14 14:59 173 4 gusting 9 17.8
2019-Jun-14 14:54 169 4 gusting 6 17.8
2019-Jun-14 14:49 173 5 gusting 7 17.8
2019-Jun-14 14:44 189 3 gusting 7 17.8
2019-Jun-14 14:39 204 3 gusting 7 17.8
2019-Jun-14 14:34 198 4 gusting 9 17.8
2019-Jun-14 14:29 204 5 gusting 10 17.8
2019-Jun-14 14:24 203 5 gusting 10 17.8
2019-Jun-14 14:19 190 6 gusting 10 17.2
2019-Jun-14 14:14 173 6 gusting 10 17.2
2019-Jun-14 14:09 176 6 gusting 12 17.2
2019-Jun-14 14:04 174 6 gusting 12 17.2
2019-Jun-14 13:59 164 6 gusting 12 17.2
2019-Jun-14 13:54 166 6 gusting 11 17.2
2019-Jun-14 13:49 172 5 gusting 11 17.2
2019-Jun-14 13:44 181 4 gusting 10 16.7
2019-Jun-14 13:39 178 6 gusting 11 16.7
2019-Jun-14 13:34 183 6 gusting 11 16.7
2019-Jun-14 13:29 182 5 gusting 8 16.7
2019-Jun-14 13:24 174 6 gusting 10 16.1
2019-Jun-14 13:19 175 6 gusting 10 16.1
2019-Jun-14 13:14 173 6 gusting 10 16.1
2019-Jun-14 13:09 172 6 gusting 10 16.1
2019-Jun-14 13:04 173 6 gusting 13 16.1
2019-Jun-14 12:59 174 6 gusting 13 16.1
2019-Jun-14 12:54 173 4 gusting 7 16.1
2019-Jun-14 12:49 171 5 gusting 9 16.1
2019-Jun-14 12:44 169 6 gusting 11 16.1
2019-Jun-14 12:39 179 4 gusting 11 15.6
2019-Jun-14 12:34 246 2 gusting 7 15.6
2019-Jun-14 12:29 243 2 gusting 6 15.6
2019-Jun-14 12:24 222 2 gusting 6 15.6
2019-Jun-14 12:19 269 1 gusting 4 15.6
2019-Jun-14 12:14 273 2 gusting 6 16.1
2019-Jun-14 12:09 245 2 gusting 6 16.1
2019-Jun-14 12:04 236 2 gusting 6 15.6
2019-Jun-14 11:59 251 2 gusting 6 15.6
2019-Jun-14 11:54 206 2 gusting 6 15.6
2019-Jun-14 11:49 206 4 gusting 7 15.6
2019-Jun-14 11:44 213 4 gusting 7 15.6
2019-Jun-14 11:39 214 3 gusting 7 15.6
2019-Jun-14 11:34 238 3 gusting 6 15.6
2019-Jun-14 11:29 241 3 gusting 6 15.6
2019-Jun-14 11:24 210 2 gusting 6 15.6
2019-Jun-14 11:19 211 3 gusting 6 15.0
2019-Jun-14 11:14 229 3 gusting 6 14.4
2019-Jun-14 11:09 238 3 gusting 6 14.4
2019-Jun-14 11:04 250 4 gusting 7 14.4
2019-Jun-14 10:59 266 4 gusting 8 14.4
2019-Jun-14 10:54 272 4 gusting 8 14.4
2019-Jun-14 10:49 256 3 gusting 8 14.4
2019-Jun-14 10:44 238 2 gusting 7 13.9
2019-Jun-14 10:39 232 3 gusting 7 13.9
2019-Jun-14 10:34 238 3 gusting 10 13.9
2019-Jun-14 10:29 267 4 gusting 10 13.3